Regional Weather Roundup
Issued by NWS

Home | Current Version | Previous Version | Text Only | Print | Product List | Glossary Off
Versions: 1 2 3 4 5 6 7 8 9 10 11 12 13 14 15 16 17 18 19 20 21 22 23 24 25 26 27 28 29 30 31 32 33 34 35 36 37 38 39 40 41 42 43 44 45 46 47 48 49 50

000
ASUS43 KDTX 260410
RWRMI
MICHIGAN HOURLY REGIONAL WEATHER ROUNDUP
NATIONAL WEATHER SERVICE DETROIT/PONTIAC MI
1200 AM EDT SUN OCT 26 2014

NOTE: "FAIR" INDICATES FEW OR NO CLOUDS BELOW 12,000 FEET WITH NO
SIGNIFICANT WEATHER AND/OR OBSTRUCTION TO VISIBILITY.

MIZ047>049-052>055-059>063-066>070-074>076-081>083-260500-
SOUTHEAST LOWER MICHIGAN

CITY           SKY/WX    TMP DP  RH WIND       PRES   REMARKS
ADRIAN         CLEAR     51  32  48 NW7       29.87S
ALMA           CLEAR     50  32  50 W9        29.85R
ANN ARBOR      CLEAR     53  31  42 NW12      29.83S
BAD AXE        CLEAR     46  36  69 W5        29.78R
CARO           CLEAR     46  35  67 W6        29.80R
DETROIT CITY   CLEAR     58  31  35 W9        29.80S
DETROIT        CLEAR     52  33  48 W9        29.82S
FLINT          CLEAR     52  34  50 NW13      29.84R
GROSSE ILE     CLEAR     54  34  47 W7        29.81S
HILLSDALE      CLEAR     53  33  46 NW10      29.88R
HOWELL         CLEAR     51  31  45 W9        29.83S

CITY           SKY/WX    TMP DP  RH WIND       PRES   REMARKS
JACKSON        CLEAR     51  34  52 NW10      29.86S
LAMBERTVILLE   CLEAR     52  32  46 W5        29.85F
LANSING        CLEAR     50  31  48 W10       29.86R
LAPEER         FAIR      51  32  47 NW10G16   29.80R
MASON          CLEAR     49  34  55 W7        29.86R
MONROE         CLEAR     48  34  57 W8        29.82S
MT. CLEMENS    CLEAR     55  32  41 W10       29.76S
PONTIAC        PTCLDY    53  30  41 W16       29.80S
PORT HOPE        N/A     52  35  52 W8G16     29.74S
PORT HURON     CLEAR     52  34  50 W7        29.77S
TRI CITIES     CLEAR     51  33  50 W9        29.83R
TROY           CLEAR     56  29  34 W10       29.81S
SAGINAW HB     CLEAR     50  32  50 W9        29.81R
$$
MIZ043>046-050>051-056>058-064>065-071>073-077>080-260500-
SOUTHWEST LOWER MICHIGAN

CITY           SKY/WX    TMP DP  RH WIND       PRES   REMARKS
BATTLE CREEK   CLEAR     55  33  43 NW10      29.90R
BENTON HARBOR  CLEAR     57  38  48 NW13G18   29.93R
BIG RAPIDS     CLEAR     51  37  58 NW5       29.86R
COLDWATER      CLEAR     51  33  49 NW6       29.90R
FREMONT        FAIR      52  30  42 NW8       29.87R
HOLLAND        CLEAR     58  38  47 NW16G25   29.91R
GRAND RAPIDS   CLEAR     55  33  43 W13       29.88R
IONIA          FAIR      54  31  41 W12G17    29.85R
KALAMAZOO      CLEAR     56  31  38 NW12G22   29.90S
LUDINGTON      CLEAR     52  40  64 NW10      29.88R
MARSHALL       CLEAR     50  32  50 W7        29.88S
MOUNT PLEASANT CLEAR     50  33  52 W6        29.83R
MUSKEGON       CLEAR     57  37  47 NW17G26   29.89R
SOUTH HAVEN    CLEAR     58  40  51 NW12G18   29.92S
$$
MIZ016>042-260500-
NORTHERN LOWER MICHIGAN

CITY           SKY/WX    TMP DP  RH WIND       PRES   REMARKS
ALPENA         CLEAR     50  31  48 NW13G23   29.70S
BEAVER ISLAND  CLEAR     51  36  56 W8G16     29.79R
BELLAIRE       CLEAR     53  33  47 W10G17    29.81S
CADILLAC       CLEAR     48  30  49 W12G20    29.82S
CHARLEVOIX     CLEAR     53  37  54 W18G25    29.82S
FRANKFORT      CLEAR     54  32  43 NW14G20   29.85S
GAYLORD        CLEAR     49  30  48 W13G23    29.76S
GRAYLING       CLEAR     50  31  48 W13G21    29.78F
HARBOR SPRINGS CLEAR     52  33  48 W15G22    29.77R
HOUGHTON LAKE  CLEAR     48  31  51 NW12      29.80R
MANISTEE       CLEAR     50  37  62 W9        29.87S
OSCODA         CLEAR     46  33  59 W10       29.73F
PELLSTON       CLEAR     51  34  52 NW21G31   29.75S
TRAVERSE CITY  CLEAR     52  31  44 NW10      29.82S
$$
MIZ007>008-015-260500-
EASTERN UPPER MICHIGAN

CITY           SKY/WX    TMP DP  RH WIND       PRES   REMARKS
KINROSS        PTCLDY    48  36  61 NW21G30   29.69S
MACKINAC ISLAN CLEAR     49  35  58 W16G26    29.74R
NEWBERRY       CLEAR     46  35  63 NW13G22   29.76R
S. S. MARIE    PTCLDY    48  36  63 NW24G36   29.67R
MUNISING         N/A     52  35  52 NW14G25   29.81R
$$
MIZ004>006-011>014-085-260500-
CENTRAL UPPER MICHIGAN

CITY           SKY/WX    TMP DP  RH WIND       PRES   REMARKS
MANISTIQUE     CLEAR     49  32  51 NW14G20   29.79R
ESCANABA       CLEAR     50  27  40 NW12      29.84R
MENOMINEE      CLEAR     52  25  35 NW5       29.87R
SAWYER-GWINN   CLEAR     47  30  50 NW10G18   29.84R
$$
MIZ001>003-009>011-084-260500-
WESTERN UPPER MICHIGAN

CITY           SKY/WX    TMP DP  RH WIND       PRES   REMARKS
IRON MOUNTAIN  CLEAR     49  27  42 NW14G22   29.87R
HOUGHTON       CLEAR     47  32  56 NW21G31   29.84R
COPPER HARBOR    N/A     50  34  54 N23G36    29.82R
IRONWOOD       CLEAR     45  28  53 W9        29.93R
$$

ABBREVIATIONS USED IN REMARKS
   TC - TEMPERATURE IN CELSIUS
  WCI - WIND CHILL INDEX
   HX - HEAT INDEX
  VSB - VISIBILITY




USA.gov is the U.S. government's official web portal to all federal, state and local government web resources and services.